Date String (YYYY-MM-DD hh:mm:ss) UTC,Instrument flags,Ambient pressure (hPa),Sample flow (lpm),Bypass flow (lpm),Sample temperature (°C),Ambient temperature (°C),ASC tube jacket temperature (°C),LED temperature (°C),Box temperature (°C),Sample RH (%),Span deviation,Mass concentration (μg/m³),Mass concentration (μg/m³),Mass concentration (μg/m³)
DateTimeUTC,F1_M11,P_M11,Q1_M11,Q2_M11,T1_M11,T2_M11,T3_M11,T4_M11,T5_M11,U1_M11,ZSPAN_M11,X0_M11,X2_M11,X1_M11
2022-02-05 06:00:00,,0829.6,5.02,0.00,22.0,21.5,00.0,30.9,23.6,08.3,0000.0,0008.95,0004.18,0003.75
2022-02-05 06:01:00,,0829.5,4.99,0.00,21.9,21.4,00.0,30.9,23.5,08.4,0000.0,0009.12,0004.22,0003.76
2022-02-05 06:02:00,,0829.5,5.01,0.00,21.9,21.3,00.0,30.9,23.5,08.3,0000.0,0009.22,0004.26,0003.79
2022-02-05 06:03:00,,0829.5,5.00,0.00,21.8,21.1,00.0,30.9,23.4,08.4,0000.0,0009.28,0004.34,0003.86
2022-02-05 06:04:00,,0829.5,4.99,0.00,21.8,21.0,00.0,30.9,23.3,08.4,0000.0,0009.19,0004.41,0003.94
2022-02-05 06:05:00,,0829.5,5.01,0.00,21.7,21.0,00.0,30.9,23.3,08.6,0000.0,0009.30,0004.44,0003.97
2022-02-05 06:06:00,,0829.5,4.99,0.00,21.7,20.9,00.0,30.8,23.2,08.5,0000.0,0009.67,0004.43,0003.99
2022-02-05 06:07:00,,0829.5,5.02,0.00,21.7,21.3,00.0,30.8,23.3,08.5,0000.0,0009.75,0004.44,0004.00
2022-02-05 06:08:00,,0829.5,4.98,0.00,21.8,22.2,00.0,30.9,23.6,08.4,0000.0,0009.78,0004.45,0004.04
2022-02-05 06:09:00,,0829.5,5.02,0.00,22.0,23.0,00.0,30.9,24.0,08.4,0000.0,0009.66,0004.46,0004.06
2022-02-05 06:10:00,,0829.5,4.99,0.00,22.1,22.9,00.0,30.9,24.1,08.4,0000.0,0009.43,0004.47,0004.07
2022-02-05 06:11:00,,0829.5,5.00,0.00,22.1,22.6,00.0,31.0,24.0,08.4,0000.0,0009.39,0004.47,0004.05
2022-02-05 06:12:00,,0829.5,5.00,0.00,22.1,22.3,00.0,31.0,23.9,08.4,0000.0,0009.26,0004.42,0004.02
2022-02-05 06:13:00,,0829.5,4.99,0.00,22.1,22.1,00.0,31.0,23.9,08.4,0000.0,0009.13,0004.36,0003.98
2022-02-05 06:14:00,,0829.5,5.00,0.00,22.1,22.0,00.0,31.0,23.9,08.4,0000.0,0009.34,0004.34,0003.94
2022-02-05 06:15:00,,0829.4,5.00,0.00,22.1,21.9,00.0,31.0,23.9,08.3,0000.0,0009.34,0004.34,0003.93
2022-02-05 06:16:00,,0829.5,5.02,0.00,22.1,21.8,00.0,31.0,23.8,08.3,0000.0,0009.40,0004.38,0003.95
2022-02-05 06:17:00,,0829.3,4.99,0.00,22.1,21.7,00.0,31.0,23.8,08.4,0000.0,0009.03,0004.40,0003.95
2022-02-05 06:18:00,,0829.4,4.99,0.00,22.0,21.5,00.0,31.0,23.7,08.4,0000.0,0008.89,0004.39,0003.94
2022-02-05 06:19:00,,0829.4,5.01,0.00,22.0,21.4,00.0,31.0,23.6,08.4,0000.0,0008.33,0004.38,0003.94
2022-02-05 06:20:00,,0829.3,4.99,0.00,21.9,21.3,00.0,31.0,23.5,08.4,0000.0,0008.32,0004.39,0003.95
2022-02-05 06:21:00,,0829.3,5.00,0.00,21.9,21.1,00.0,31.0,23.4,08.4,0000.0,0008.95,0004.42,0003.97
2022-02-05 06:22:00,,0829.2,4.98,0.00,21.8,20.9,00.0,30.9,23.3,08.5,0000.0,0009.00,0004.42,0003.98
2022-02-05 06:23:00,,0829.5,5.02,0.00,21.7,20.8,00.0,30.9,23.1,08.5,0000.0,0009.43,0004.44,0004.01
2022-02-05 06:24:00,,0829.2,4.99,0.00,21.7,21.1,00.0,30.9,23.2,08.4,0000.0,0010.29,0004.45,0004.04
2022-02-05 06:25:00,,0829.2,5.00,0.00,21.8,21.9,00.0,30.9,23.5,08.4,0000.0,0010.30,0004.48,0004.09
2022-02-05 06:26:00,,0829.2,4.99,0.00,21.9,22.6,00.0,30.9,23.8,08.4,0000.0,0010.41,0004.53,0004.12
2022-02-05 06:27:00,,0829.2,5.01,0.00,22.1,22.9,00.0,31.0,24.0,08.3,0000.0,0010.41,0004.52,0004.13
2022-02-05 06:28:00,,0829.4,5.01,0.00,22.0,22.5,00.0,31.0,23.8,08.4,0000.0,0010.20,0004.49,0004.14
2022-02-05 06:29:00,,0829.3,5.00,0.00,22.0,22.1,00.0,31.0,23.6,08.5,0000.0,0010.25,0004.50,0004.14
2022-02-05 06:30:00,,0829.3,4.99,0.00,21.9,21.8,00.0,31.0,23.5,08.5,0000.0,0010.27,0004.51,0004.14
2022-02-05 06:31:00,,0829.2,5.00,0.00,21.9,21.6,00.0,31.0,23.5,08.4,0000.0,0010.24,0004.50,0004.12
2022-02-05 06:32:00,,0829.3,5.00,0.00,21.9,21.5,00.0,30.9,23.5,08.4,0000.0,0009.66,0004.50,0004.12
2022-02-05 06:33:00,,0829.4,5.00,0.00,21.9,21.4,00.0,30.9,23.5,08.4,0000.0,0009.58,0004.51,0004.12
2022-02-05 06:34:00,,0829.4,4.99,0.00,21.8,21.3,00.0,30.9,23.5,08.4,0000.0,0009.18,0004.49,0004.12
2022-02-05 06:35:00,,0829.4,5.02,0.00,21.8,21.3,00.0,30.9,23.5,08.4,0000.0,0008.42,0004.55,0004.13
2022-02-05 06:36:00,,0829.4,4.99,0.00,21.8,21.2,00.0,30.9,23.5,08.4,0000.0,0008.90,0004.55,0004.12
2022-02-05 06:37:00,,0829.3,5.00,0.00,21.8,21.2,00.0,30.9,23.4,08.4,0000.0,0008.81,0004.53,0004.12
2022-02-05 06:38:00,,0829.4,5.02,0.00,21.8,21.1,00.0,30.9,23.3,08.4,0000.0,0009.06,0004.57,0004.13
2022-02-05 06:39:00,,0829.2,4.99,0.00,21.7,21.0,00.0,30.9,23.3,08.3,0000.0,0009.57,0004.59,0004.14
2022-02-05 06:40:00,,0829.2,5.00,0.00,21.7,21.0,00.0,30.8,23.3,08.0,0000.0,0009.45,0004.53,0004.08
2022-02-05 06:41:00,,0829.2,5.00,0.00,21.7,21.0,00.0,30.8,23.3,08.1,0000.0,0009.37,0004.47,0004.03
2022-02-05 06:42:00,,0829.2,5.00,0.00,21.7,21.5,00.0,30.8,23.4,08.3,0000.0,0009.40,0004.50,0004.06
2022-02-05 06:43:00,,0829.2,5.00,0.00,21.9,22.4,00.0,30.9,23.7,08.3,0000.0,0009.45,0004.52,0004.08
2022-02-05 06:44:00,,0829.2,4.99,0.00,22.0,22.8,00.0,30.9,24.0,08.3,0000.0,0009.47,0004.54,0004.09
2022-02-05 06:45:00,,0829.2,5.01,0.00,22.1,22.6,00.0,30.9,24.0,08.4,0000.0,0009.49,0004.55,0004.09
2022-02-05 06:46:00,,0829.2,5.00,0.00,22.1,22.3,00.0,30.9,23.9,08.4,0000.0,0009.42,0004.48,0004.06
2022-02-05 06:47:00,,0829.2,5.00,0.00,22.0,22.1,00.0,30.9,23.8,08.3,0000.0,0008.85,0004.46,0004.05
2022-02-05 06:48:00,,0829.2,4.99,0.00,22.0,21.9,00.0,30.9,23.8,08.3,0000.0,0008.71,0004.43,0004.04
2022-02-05 06:49:00,,0829.3,5.00,0.00,22.0,21.7,00.0,31.0,23.7,08.1,0000.0,0008.36,0004.35,0004.01
2022-02-05 06:50:00,,0829.2,5.00,0.00,22.0,21.5,00.0,30.9,23.6,08.3,0000.0,0008.02,0004.39,0004.02
2022-02-05 06:51:00,,0829.2,5.01,0.00,21.9,21.3,00.0,30.9,23.4,08.4,0000.0,0008.05,0004.44,0004.09
2022-02-05 06:52:00,,0829.1,4.98,0.00,21.8,21.2,00.0,30.9,23.4,08.3,0000.0,0008.26,0004.52,0004.16
2022-02-05 06:53:00,,0829.1,5.01,0.00,21.8,21.1,00.0,30.9,23.3,08.3,0000.0,0008.59,0004.55,0004.17
2022-02-05 06:54:00,,0829.1,5.00,0.00,21.7,21.0,00.0,30.9,23.3,07.7,0000.0,0008.38,0004.44,0004.07
2022-02-05 06:55:00,,0829.1,4.99,0.00,21.7,20.9,00.0,30.9,23.2,07.7,0000.0,0008.19,0004.30,0003.94
2022-02-05 06:56:00,,0829.1,5.01,0.00,21.6,20.8,00.0,30.8,23.2,07.8,0000.0,0008.00,0004.18,0003.83
2022-02-05 06:57:00,,0829.1,5.00,0.00,21.6,20.8,00.0,30.8,23.1,08.4,0000.0,0007.96,0004.16,0003.80
2022-02-05 06:58:00,,0829.1,4.99,0.00,21.6,21.4,00.0,30.8,23.3,08.5,0000.0,0007.92,0004.13,0003.76
2022-02-05 06:59:00,,0829.1,5.01,0.00,21.8,22.3,00.0,30.8,23.6,08.1,0000.0,0008.05,0004.09,0003.69
